Estación de Odessa
Ultimos registro cada 15 minutos 53
| N° | Estación | Fecha / Hora | Temperatura | Humedad | Lluvia | Velocidad | Dirección | Radiación | Presion |
| 53 | Odessa | 10-05-2026 13:00 | 13,7 | 72 | 0 | 0,9 | 128 | 591 | 1016,6 |
| 52 | Odessa | 10-05-2026 12:45 | 13,1 | 73 | 0 | 0,4 | 191 | 596 | 1016,7 |
| 51 | Odessa | 10-05-2026 12:30 | 12,4 | 75 | 0 | 0,9 | 217 | 596 | 1017 |
| 50 | Odessa | 10-05-2026 12:15 | 12 | 78 | 0 | 0,9 | 209 | 591 | 1017 |
| 49 | Odessa | 10-05-2026 12:00 | 11,2 | 80 | 0 | 0 | 244 | 584 | 1017,4 |
| 48 | Odessa | 10-05-2026 11:45 | 10,6 | 81 | 0 | 1,3 | 252 | 573 | 1017,6 |
| 47 | Odessa | 10-05-2026 11:30 | 10,2 | 81 | 0 | 1,8 | 160 | 559 | 1017,9 |
| 46 | Odessa | 10-05-2026 11:15 | 9,5 | 82 | 0 | 1,3 | 169 | 540 | 1017,9 |
| 45 | Odessa | 10-05-2026 11:00 | 9,2 | 84 | 0 | 0,9 | 211 | 517 | 1018,2 |
| 44 | Odessa | 10-05-2026 10:45 | 8,7 | 86 | 0 | 2,7 | 149 | 492 | 1018,1 |
| 43 | Odessa | 10-05-2026 10:30 | 8,1 | 88 | 0 | 0,9 | 201 | 466 | 1018,3 |
| 42 | Odessa | 10-05-2026 10:15 | 7,6 | 90 | 0 | 1,3 | 182 | 432 | 1018,2 |
| 41 | Odessa | 10-05-2026 10:00 | 6,9 | 90 | 0 | 1,3 | 200 | 394 | 1018,4 |
| 40 | Odessa | 10-05-2026 09:45 | 6,4 | 93 | 0 | 1,8 | 215 | 350 | 1018,4 |
| 39 | Odessa | 10-05-2026 09:30 | 5,8 | 95 | 0 | 0,9 | 225 | 309 | 1018,7 |
| 38 | Odessa | 10-05-2026 09:15 | 5,5 | 96 | 0 | 0,9 | 257 | 271 | 1018,5 |
| 37 | Odessa | 10-05-2026 09:00 | 4,9 | 96 | 0 | 0 | 220 | 91 | 1018,7 |
| 36 | Odessa | 10-05-2026 08:45 | 3,8 | 96 | 0 | 0 | 119 | 26 | 1018,6 |
| 35 | Odessa | 10-05-2026 08:30 | 2,3 | 95 | 0 | 0 | 119 | 23 | 1018,4 |
| 34 | Odessa | 10-05-2026 08:15 | 1,2 | 94 | 0 | 0 | 119 | 70 | 1018,2 |
| 33 | Odessa | 10-05-2026 08:00 | 0,5 | 94 | 0 | 0 | 119 | 16 | 1018,3 |
| 32 | Odessa | 10-05-2026 07:45 | 0,1 | 94 | 0 | 0 | 119 | 12 | 1017,9 |
| 31 | Odessa | 10-05-2026 07:30 | 0 | 94 | 0 | 0 | 119 | 0 | 1017,9 |
| 30 | Odessa | 10-05-2026 07:15 | 0 | 94 | 0 | 0 | 119 | 0 | 1018,1 |
| 29 | Odessa | 10-05-2026 07:00 | -0,2 | 94 | 0 | 0 | 119 | 0 | 1018,3 |
| 28 | Odessa | 10-05-2026 06:45 | -0,1 | 93 | 0 | 0 | 119 | 0 | 1018,2 |
| 27 | Odessa | 10-05-2026 06:30 | 0,1 | 93 | 0 | 0 | 119 | 0 | 1018,1 |
| 26 | Odessa | 10-05-2026 06:15 | 0,2 | 93 | 0 | 0 | 119 | 0 | 1018 |
| 25 | Odessa | 10-05-2026 06:00 | 0,4 | 93 | 0 | 0 | 119 | 0 | 1017,9 |
| 24 | Odessa | 10-05-2026 05:45 | 0,5 | 93 | 0 | 0 | 119 | 0 | 1018,1 |
| 23 | Odessa | 10-05-2026 05:30 | 0,6 | 93 | 0 | 0 | 119 | 0 | 1018 |
| 22 | Odessa | 10-05-2026 05:15 | 0,5 | 93 | 0 | 0 | 119 | 0 | 1017,9 |
| 21 | Odessa | 10-05-2026 05:00 | 0,7 | 93 | 0 | 0 | 119 | 0 | 1017,8 |
| 20 | Odessa | 10-05-2026 04:45 | 0,8 | 93 | 0 | 0 | 119 | 0 | 1017,8 |
| 19 | Odessa | 10-05-2026 04:30 | 1 | 93 | 0 | 0 | 119 | 0 | 1017,9 |
| 18 | Odessa | 10-05-2026 04:15 | 0,8 | 93 | 0 | 0 | 119 | 0 | 1017,9 |
| 17 | Odessa | 10-05-2026 04:00 | 1,1 | 93 | 0 | 0 | 112 | 0 | 1017,9 |
| 16 | Odessa | 10-05-2026 03:45 | 1,1 | 93 | 0 | 0 | 112 | 0 | 1017,9 |
| 15 | Odessa | 10-05-2026 03:30 | 1,2 | 92 | 0 | 0 | 112 | 0 | 1017,8 |
| 14 | Odessa | 10-05-2026 03:15 | 1,5 | 92 | 0 | 0 | 112 | 0 | 1017,9 |
| 13 | Odessa | 10-05-2026 03:00 | 1,7 | 93 | 0 | 0 | 91 | 0 | 1017,9 |
| 12 | Odessa | 10-05-2026 02:45 | 1,6 | 92 | 0 | 0 | 91 | 0 | 1018,1 |
| 11 | Odessa | 10-05-2026 02:30 | 1,8 | 92 | 0 | 0 | 121 | 0 | 1018,2 |
| 10 | Odessa | 10-05-2026 02:15 | 1,9 | 92 | 0 | 0 | 121 | 0 | 1018,3 |
| 9 | Odessa | 10-05-2026 02:00 | 2,2 | 91 | 0 | 0 | 121 | 0 | 1018,5 |
| 8 | Odessa | 10-05-2026 01:45 | 2,4 | 91 | 0 | 0 | 121 | 0 | 1018,7 |
| 7 | Odessa | 10-05-2026 01:30 | 2,7 | 91 | 0 | 0 | 121 | 0 | 1018,5 |
| 6 | Odessa | 10-05-2026 01:15 | 3,2 | 90 | 0 | 0 | 121 | 0 | 1018,4 |
| 5 | Odessa | 10-05-2026 01:00 | 3,8 | 90 | 0 | 0 | 121 | 0 | 1018,3 |
| 4 | Odessa | 10-05-2026 00:45 | 4,3 | 89 | 0 | 0 | 135 | 0 | 1018,7 |
| 3 | Odessa | 10-05-2026 00:30 | 5,1 | 90 | 0 | 0 | 135 | 0 | 1018,7 |
| 2 | Odessa | 10-05-2026 00:15 | 5,7 | 90 | 0 | 0,4 | 155 | 0 | 1018,6 |
| 1 | Odessa | 10-05-2026 00:00 | 5,7 | 87 | 0 | 0 | 114 | 0 | 1018,6 |